OK0BH-6 Weather Reports


time (UTC)temp
F
wind
direction
speed
knots
gust
knots
rain 1hr
in
rain 24hr
in
rain mn
in
humidity
%
barometer
mb
20260507232923 56 0.0 0.0 0.00 0.00 0.00 45 1015.3
20260507231948 56 0.0 0.0 0.00 0.00 0.00 45 1015.3
20260507231014 56 0.0 0.0 0.00 0.00 0.00 45 1015.0
20260507230039 56 0.0 0.0 0.00 0.00 0.00 45 1015.2
20260507225104 56 0.0 0.0 0.00 0.00 0.00 45 1015.1
20260507224129 56 0.0 0.0 0.00 0.00 0.00 45 1014.8
20260507223154 57 0.0 0.0 0.00 0.00 0.00 45 1014.8
20260507222219 57 0.0 0.0 0.00 0.00 0.00 45 1014.5
20260507221245 57 0.0 0.0 0.00 0.00 0.00 44 1014.6
20260507220309 57 0.0 0.0 0.00 0.00 0.00 44 1014.5
20260507215335 57 0.0 0.0 0.00 0.00 0.00 44 1014.5
20260507214400 58 0.0 0.0 0.00 0.00 0.00 44 1014.5
20260507213425 58 0.0 0.0 0.00 0.00 0.00 43 1014.5
20260507212450 59 0.0 0.0 0.00 0.00 0.00 43 1014.4
20260507211515 59 0.0 0.0 0.00 0.00 0.00 43 1014.4
20260507210540 60 0.0 0.0 0.00 0.00 0.00 43 1014.4
20260507205605 60 0.0 0.0 0.00 0.00 0.00 43 1014.3
20260507204630 60 0.0 0.0 0.00 0.00 0.00 43 1014.4
20260507203656 60 0.0 0.0 0.00 0.00 0.00 43 1014.4
20260507202721 60 0.0 0.0 0.00 0.00 0.00 43 1014.4
20260507201746 60 0.0 0.0 0.00 0.00 0.00 43 1014.2
20260507200811 60 0.0 0.0 0.00 0.00 0.00 43 1014.3
20260507195836 60 0.0 0.0 0.00 0.00 0.00 43 1014.2
20260507194901 60 0.0 0.0 0.00 0.00 0.00 43 1014.3
20260507193926 60 0.0 0.0 0.00 0.00 0.00 43 1014.2
20260507192952 60 0.0 0.0 0.00 0.00 0.00 43 1014.1
20260507192017 60 0.0 0.0 0.00 0.00 0.00 43 1014.0
20260507191042 59 0.0 0.0 0.00 0.00 0.00 43 1013.9
20260507190107 59 0.0 0.0 0.00 0.00 0.00 43 1013.8
20260507185132 59 0.0 0.0 0.00 0.00 0.00 43 1013.7
20260507184157 58 0.0 0.0 0.00 0.00 0.00 43 1013.7
20260507183222 58 0.0 0.0 0.00 0.00 0.00 43 1013.6
20260507182247 58 0.0 0.0 0.00 0.00 0.00 43 1013.7
20260507181313 58 0.0 0.0 0.00 0.00 0.00 42 1013.5
20260507180338 59 0.0 0.0 0.00 0.00 0.00 42 1013.6
20260507175403 60 0.0 0.0 0.00 0.00 0.00 42 1013.1
20260507174428 61 0.0 0.0 0.00 0.00 0.00 42 1013.2
20260507173453 61 0.0 0.0 0.00 0.00 0.00 42 1013.0
20260507172518 61 0.0 0.0 0.00 0.00 0.00 42 1013.0
20260507171543 61 0.0 0.0 0.00 0.00 0.00 42 1012.8
20260507170608 61 0.0 0.0 0.00 0.00 0.00 42 1012.6
20260507165634 61 0.0 0.0 0.00 0.00 0.00 42 1012.6
20260507164734 60 0.0 0.0 0.00 0.00 0.00 42 1012.6
20260507164659 60 0.0 0.0 0.00 0.00 0.00 42 1012.6
20260507163756 59 0.0 0.0 0.00 0.00 0.00 43 1012.5
20260507163724 59 0.0 0.0 0.00 0.00 0.00 43 1012.5
20260507162749 58 0.0 0.0 0.00 0.00 0.00 43 1012.5
20260507161814 57 0.0 0.0 0.00 0.00 0.00 43 1012.4
20260507160839 57 0.0 0.0 0.00 0.00 0.00 42 1012.4
20260507155904 58 0.0 0.0 0.00 0.00 0.00 40 1012.5
20260507154930 62 0.0 0.0 0.00 0.00 0.00 38 1012.8
20260507153955 67 0.0 0.0 0.00 0.00 0.00 38 1012.6
20260507153055 68 0.0 0.0 0.00 0.00 0.00 39 1012.4
20260507153020 68 0.0 0.0 0.00 0.00 0.00 39 1012.4
20260507152045 68 0.0 0.0 0.00 0.00 0.00 39 1012.3
20260507151110 69 0.0 0.0 0.00 0.00 0.00 38 1012.2
20260507150135 69 0.0 0.0 0.00 0.00 0.00 38 1012.2
20260507145200 70 0.0 0.0 0.00 0.00 0.00 38 1012.2
20260507144225 70 0.0 0.0 0.00 0.00 0.00 38 1012.3
20260507143250 70 0.0 0.0 0.00 0.00 0.00 39 1012.3
20260507142316 70 0.0 0.0 0.00 0.00 0.00 39 1012.4
20260507141341 70 0.0 0.0 0.00 0.00 0.00 38 1012.3
20260507140406 72 0.0 0.0 0.00 0.00 0.00 38 1012.4
20260507135431 72 0.0 0.0 0.00 0.00 0.00 38 1012.5
20260507134456 73 0.0 0.0 0.00 0.00 0.00 39 1012.4
20260507133521 73 0.0 0.0 0.00 0.00 0.00 38 1012.4
20260507132546 73 0.0 0.0 0.00 0.00 0.00 39 1012.3
20260507131655 73 0.0 0.0 0.00 0.00 0.00 39 1012.5
20260507131612 73 0.0 0.0 0.00 0.00 0.00 39 1012.5
20260507130637 72 0.0 0.0 0.00 0.00 0.00 40 1012.6
20260507125702 72 0.0 0.0 0.00 0.00 0.00 39 1012.7
20260507124727 72 0.0 0.0 0.00 0.00 0.00 40 1012.7
20260507123752 71 0.0 0.0 0.00 0.00 0.00 40 1012.6
20260507122817 71 0.0 0.0 0.00 0.00 0.00 40 1012.7
20260507121842 70 0.0 0.0 0.00 0.00 0.00 40 1012.8
20260507120907 70 0.0 0.0 0.00 0.00 0.00 41 1012.9
20260507115933 69 0.0 0.0 0.00 0.00 0.00 41 1013.0
20260507114958 68 0.0 0.0 0.00 0.00 0.00 42 1013.0
20260507114023 67 0.0 0.0 0.00 0.00 0.00 42 1013.0
20260507113048 67 0.0 0.0 0.00 0.00 0.00 42 1013.2
20260507112113 67 0.0 0.0 0.00 0.00 0.00 42 1013.2
20260507111138 66 0.0 0.0 0.00 0.00 0.00 43 1013.3
20260507110203 65 0.0 0.0 0.00 0.00 0.00 43 1013.3
20260507105228 65 0.0 0.0 0.00 0.00 0.00 43 1013.3
20260507104254 65 0.0 0.0 0.00 0.00 0.00 43 1013.3
20260507103319 65 0.0 0.0 0.00 0.00 0.00 43 1013.3
20260507102344 64 0.0 0.0 0.00 0.00 0.00 44 1013.3
20260507101409 64 0.0 0.0 0.00 0.00 0.00 44 1013.3
20260507100434 63 0.0 0.0 0.00 0.00 0.00 44 1013.3
20260507095459 63 0.0 0.0 0.00 0.00 0.00 44 1013.1
20260507094524 63 0.0 0.0 0.00 0.00 0.00 44 1013.1
20260507093549 63 0.0 0.0 0.00 0.00 0.00 44 1013.1
20260507092615 63 0.0 0.0 0.00 0.00 0.00 44 1012.9
20260507091640 63 0.0 0.0 0.00 0.00 0.00 44 1012.8
20260507090705 63 0.0 0.0 0.00 0.00 0.00 44 1012.8
20260507085730 63 0.0 0.0 0.00 0.00 0.00 45 1012.7
20260507084755 62 0.0 0.0 0.00 0.00 0.00 45 1012.6
20260507083820 61 0.0 0.0 0.00 0.00 0.00 45 1012.6
20260507082846 60 0.0 0.0 0.00 0.00 0.00 45 1012.4
20260507081910 59 0.0 0.0 0.00 0.00 0.00 45 1012.2
20260507080936 59 0.0 0.0 0.00 0.00 0.00 45 1012.1
20260507080001 58 0.0 0.0 0.00 0.00 0.00 46 1012.1
20260507075026 58 0.0 0.0 0.00 0.00 0.00 46 1012.0
20260507074051 58 0.0 0.0 0.00 0.00 0.00 46 1011.8
20260507073116 58 0.0 0.0 0.00 0.00 0.00 45 1011.8
20260507072141 58 0.0 0.0 0.00 0.00 0.00 46 1011.7
20260507071206 58 0.0 0.0 0.00 0.00 0.00 46 1011.7
20260507070231 58 0.0 0.0 0.00 0.00 0.00 46 1011.7
20260507065257 58 0.0 0.0 0.00 0.00 0.00 46 1011.7
20260507064322 58 0.0 0.0 0.00 0.00 0.00 46 1011.6
20260507063347 58 0.0 0.0 0.00 0.00 0.00 46 1011.4
20260507062412 57 0.0 0.0 0.00 0.00 0.00 46 1011.4
20260507061437 57 0.0 0.0 0.00 0.00 0.00 46 1011.4
20260507060502 57 0.0 0.0 0.00 0.00 0.00 46 1011.1
20260507055527 57 0.0 0.0 0.00 0.00 0.00 46 1010.8
20260507054552 57 0.0 0.0 0.00 0.00 0.00 46 1010.6
20260507053618 57 0.0 0.0 0.00 0.00 0.00 46 1010.6
20260507052643 57 0.0 0.0 0.00 0.00 0.00 46 1010.5
20260507051708 57 0.0 0.0 0.00 0.00 0.00 46 1010.3
20260507050821 56 0.0 0.0 0.00 0.00 0.00 46 1010.3
20260507050733 56 0.0 0.0 0.00 0.00 0.00 46 1010.3
20260507045758 56 0.0 0.0 0.00 0.00 0.00 46 1010.2
20260507044823 56 0.0 0.0 0.00 0.00 0.00 46 1010.1
20260507043848 56 0.0 0.0 0.00 0.00 0.00 46 1010.0
20260507042914 56 0.0 0.0 0.00 0.00 0.00 45 1009.8
20260507041939 56 0.0 0.0 0.00 0.00 0.00 45 1009.4
20260507041004 57 0.0 0.0 0.00 0.00 0.00 45 1009.2
20260507040029 57 0.0 0.0 0.00 0.00 0.00 46 1009.3
20260507035216 57 0.0 0.0 0.00 0.00 0.00 46 1009.3
20260507035054 57 0.0 0.0 0.00 0.00 0.00 46 1009.3
20260507034119 57 0.0 0.0 0.00 0.00 0.00 45 1009.3
20260507033144 57 0.0 0.0 0.00 0.00 0.00 45 1009.0
20260507032209 57 0.0 0.0 0.00 0.00 0.00 45 1008.7
20260507031235 57 0.0 0.0 0.00 0.00 0.00 45 1008.8
20260507030300 57 0.0 0.0 0.00 0.00 0.00 45 1008.8
20260507025325 57 0.0 0.0 0.00 0.00 0.00 45 1008.8
20260507024350 57 0.0 0.0 0.00 0.00 0.00 45 1008.6
20260507023415 57 0.0 0.0 0.00 0.00 0.00 45 1008.4
20260507022440 57 0.0 0.0 0.00 0.00 0.00 45 1008.7
20260507021505 58 0.0 0.0 0.00 0.00 0.00 45 1008.5
20260507020530 58 0.0 0.0 0.00 0.00 0.00 44 1008.7
20260507015556 58 0.0 0.0 0.00 0.00 0.00 45 1008.7
20260507014621 58 0.0 0.0 0.00 0.00 0.00 44 1008.4
20260507013646 58 0.0 0.0 0.00 0.00 0.00 44 1008.5
20260507012711 58 0.0 0.0 0.00 0.00 0.00 44 1008.4
20260507011736 58 0.0 0.0 0.00 0.00 0.00 44 1008.3
20260507010801 58 0.0 0.0 0.00 0.00 0.00 44 1008.4
20260507005826 59 0.0 0.0 0.00 0.00 0.00 44 1007.9
20260507004851 59 0.0 0.0 0.00 0.00 0.00 44 1007.5
20260507003917 59 0.0 0.0 0.00 0.00 0.00 44 1007.5
20260507002942 59 0.0 0.0 0.00 0.00 0.00 44 1007.4
20260507002007 59 0.0 0.0 0.00 0.00 0.00 43 1007.1
20260507001032 60 0.0 0.0 0.00 0.00 0.00 43 1007.1
20260507000057 60 0.0 0.0 0.00 0.00 0.00 43 1007.1
20260506235122 60 0.0 0.0 0.00 0.00 0.00 43 1007.0
20260506234147 61 0.0 0.0 0.00 0.00 0.00 43 1007.1